This is the latest recevied weather packets stored in our database for station/object W5GBS-9. If no packets are shown the sender has not sent any weather packets the latest 10 day(s).
| Time | Temp. | Humidity | Pressure | Rain* | Wind** | Luminosity | Snow |
|---|---|---|---|---|---|---|---|
| 1787524417 | 38.89° C | 100% | 1011.7 hPa | 0 mm | - | - | - |
| 1787523696 | 38.89° C | 100% | 1011.9 hPa | 0 mm | - | - | - |
| 1787522976 | 38.89° C | 100% | 1011.9 hPa | 0 mm | - | - | - |
| 1787519372 | 39.44° C | 100% | 1012.4 hPa | 0 mm | - | - | - |
| 1787517931 | 40° C | 100% | 1012.7 hPa | 0 mm | - | - | - |
| 1787517210 | 40° C | 100% | 1012.8 hPa | 0 mm | - | - | - |
| 1787516489 | 39.44° C | 100% | 1013 hPa | 0 mm | - | - | - |
| 1787515769 | 39.44° C | 100% | 1013.1 hPa | 0 mm | - | - | - |
| 1787514327 | 39.44° C | 100% | 1013.3 hPa | 0 mm | - | - | - |
| 1787512886 | 39.44° C | 100% | 1013.7 hPa | 0 mm | - | - | - |
| 1787511444 | 39.44° C | 100% | 1014 hPa | 0 mm | - | - | - |
| 1787510724 | 38.89° C | 100% | 1014.2 hPa | 0 mm | - | - | - |
| 1787510003 | 38.89° C | 100% | 1014.4 hPa | 0 mm | - | - | - |
| 1787509282 | 38.89° C | 100% | 1014.4 hPa | 0 mm | - | - | - |
| 1787508562 | 38.89° C | 100% | 1014.7 hPa | 0 mm | - | - | - |
| 1787507841 | 38.33° C | 100% | 1014.9 hPa | 0 mm | - | - | - |
| 1787506400 | 38.33° C | 100% | 1015.3 hPa | 0 mm | - | - | - |
| 1787504958 | 37.22° C | 100% | 1015.6 hPa | 0 mm | - | - | - |
| 1787504238 | 37.22° C | 100% | 1015.8 hPa | 0 mm | - | - | - |
| 1787503517 | 37.22° C | 100% | 1015.8 hPa | 0 mm | - | - | - |
| 1787502796 | 36.11° C | 100% | 1015.8 hPa | 0 mm | - | - | - |
| 1787502077 | 36.11° C | 100% | 1016 hPa | 0 mm | - | - | - |
| 1787501355 | 35.56° C | 100% | 1015.6 hPa | 0 mm | - | - | - |
| 1787500634 | 35.56° C | 100% | 1015.6 hPa | 0 mm | - | - | - |
| 1787499913 | 34.44° C | 100% | 1015.7 hPa | 0 mm | - | - | - |
* Rain latest hour (hover to see other rain measurements)
** Current wind speed in m/s (hover to see current wind gust speed)